Change the Weather History Date:

Sunday, August 10, 2014

  Actual Average Record
Temperature  
Mean Temperature 69 °F -  
Max Temperature 76 °F 78 °F 91 °F (2000)
Min Temperature 62 °F 54 °F 44 °F (1997)
Cooling Degree Days 4    
Growing Degree Days 19 (Base 50)    
Moisture  
Dew Point 62 °F    
Average Humidity 84    
Maximum Humidity 100    
Minimum Humidity 50    
Precipitation  
Precipitation 0.00 in - - ()
Sea Level Pressure  
Sea Level Pressure 30.08 in    
Wind  
Wind Speed 6 mph (NNW)    
Max Wind Speed 17 mph    
Max Gust Speed 22 mph    
Visibility 10 miles    
Events      
Averages and records for this station are not official NWS values.
T = Trace of Precipitation, MM = Missing Value Source: NWS Daily Summary

Daily Weather History Graph

Daily Weather History Graph

Search for Another Location

Airport or City:

Trip Planner

Search our weather history database for the weather conditions in past years. The results will help you decide how hot, cold, wet, or windy it might be!

Date:

Astronomy

Aug. 10, 2014 Rise Set
Actual Time 6:17 AM CDT 8:51 PM CDT
Civil Twilight 5:42 AM CDT 9:25 PM CDT
Nautical Twilight 4:58 AM CDT 10:09 PM CDT
Astronomical Twilight 4:07 AM CDT 11:00 PM CDT
Moon 8:31 PM CDT (8/10) 6:15 AM CDT (8/10)
Length of Visible Light 15h 43m
Length of Day
14h 33m
Full, 100% of the Moon is Illuminated
Aug 10
Full
Aug 10
Full
Aug 17
Last Quarter
Aug 25
New
Sep 2
First Quarter

Hourly Weather History & Observations

Time (CDT) Temp. Dew Point Humidity Pressure Visibility Wind Dir Wind Speed Gust Speed Precip Events Conditions
12:13 AM 66.2 °F 66.2 °F 100% 30.04 in 8.0 mi SSE 1.2 mph - N/A   Clear
12:38 AM 66.2 °F 66.2 °F 100% 30.03 in 10.0 mi Calm Calm - N/A   Clear
12:43 AM 66.2 °F 66.2 °F 100% 30.03 in 8.0 mi Calm Calm - N/A   Clear
12:58 AM 64.2 °F 64.2 °F 100% 30.04 in 8.0 mi ESE 4.6 mph - N/A   Clear
1:23 AM 64.4 °F 64.4 °F 100% 30.03 in 9.0 mi SE 3.5 mph - N/A   Clear
1:33 AM 64.4 °F 64.4 °F 100% 30.03 in 8.0 mi SE 4.6 mph - N/A   Scattered Clouds
1:43 AM 64.4 °F 64.4 °F 100% 30.03 in 10.0 mi SE 3.5 mph - N/A   Mostly Cloudy
1:58 AM 65.7 °F 65.7 °F 100% 30.04 in 10.0 mi SSE 4.6 mph - N/A   Overcast
2:58 AM 66.6 °F 66.6 °F 100% 30.04 in 10.0 mi South 5.8 mph - N/A   Mostly Cloudy
3:03 AM 66.2 °F 66.2 °F 100% 30.03 in 9.0 mi South 6.9 mph - N/A   Mostly Cloudy
3:58 AM 66.9 °F 66.9 °F 100% 30.05 in 9.0 mi SSW 5.8 mph - N/A   Mostly Cloudy
4:03 AM 66.2 °F 66.2 °F 100% 30.04 in 10.0 mi SSW 5.8 mph - N/A   Mostly Cloudy
4:43 AM 66.2 °F 66.2 °F 100% 30.04 in 10.0 mi SSW 5.8 mph - N/A   Overcast
4:58 AM 66.9 °F 66.9 °F 100% 30.05 in 10.0 mi WSW 5.8 mph - N/A   Overcast
5:38 AM 66.2 °F 66.2 °F 100% 30.04 in 10.0 mi WNW 6.9 mph - N/A   Overcast
5:58 AM 66.9 °F 66.9 °F 100% 30.06 in 10.0 mi NW 10.4 mph - N/A   Overcast
6:13 AM 68.0 °F 68.0 °F 100% 30.04 in 10.0 mi North 13.8 mph - N/A   Overcast
6:33 AM 66.2 °F 66.2 °F 100% 30.05 in 10.0 mi North 10.4 mph - N/A   Scattered Clouds
6:58 AM 66.2 °F 66.2 °F 100% 30.07 in 10.0 mi NNW 9.2 mph - N/A   Mostly Cloudy
7:53 AM 66.2 °F 60.8 °F 83% 30.09 in 10.0 mi NNW 9.2 mph - N/A   Overcast
7:58 AM 65.8 °F 61.9 °F 87% 30.10 in 10.0 mi NNW 9.2 mph - N/A   Overcast
8:03 AM 66.2 °F 62.6 °F 88% 30.09 in 10.0 mi NNW 10.4 mph - N/A   Overcast
8:58 AM 67.8 °F 60.1 °F 76% 30.10 in 10.0 mi North 16.1 mph - N/A   Overcast
9:58 AM 68.5 °F 58.6 °F 71% 30.12 in 10.0 mi North 16.1 mph 20.7 mph N/A   Mostly Cloudy
10:58 AM 68.5 °F 59.2 °F 72% 30.12 in 10.0 mi North 12.7 mph 21.9 mph N/A   Scattered Clouds
11:58 AM 71.2 °F 59.9 °F 67% 30.13 in 10.0 mi NNW 12.7 mph - N/A   Scattered Clouds
12:58 PM 73.4 °F 59.5 °F 62% 30.13 in 10.0 mi NNW 12.7 mph - N/A   Clear
1:58 PM 74.3 °F 55.9 °F 53% 30.12 in 10.0 mi North 10.4 mph - N/A   Mostly Cloudy
2:58 PM 76.1 °F 56.8 °F 51% 30.11 in 10.0 mi NNW 11.5 mph 16.1 mph N/A   Partly Cloudy
3:58 PM 75.0 °F 55.2 °F 50% 30.11 in 10.0 mi North 17.3 mph - N/A   Partly Cloudy
4:58 PM 75.0 °F 55.0 °F 50% 30.11 in 10.0 mi North 15.0 mph - N/A   Partly Cloudy
5:58 PM 73.0 °F 54.7 °F 52% 30.11 in 10.0 mi North 11.5 mph - N/A   Clear
6:58 PM 69.8 °F 55.2 °F 60% 30.12 in 10.0 mi NNW 10.4 mph - N/A   Clear
7:58 PM 68.2 °F 55.0 °F 63% 30.12 in 10.0 mi North 10.4 mph - N/A   Clear
8:58 PM 63.7 °F 55.8 °F 75% 30.14 in 10.0 mi North 4.6 mph - N/A   Clear
9:58 PM 62.2 °F 56.5 °F 81% 30.15 in 10.0 mi NNW 6.9 mph - N/A   Clear
10:58 PM 62.2 °F 56.1 °F 80% 30.17 in 10.0 mi NNW 6.9 mph - N/A   Clear
11:58 PM 62.2 °F 55.4 °F 78% 30.16 in 10.0 mi NW 6.9 mph - N/A   Clear